Decatur, AL

1:25 AM CDT on April 24, 2017 (GMT -0500)
Pryor Regional

Weather History for KDCU - October, 2013

Change the Weather History Date:

Saturday, October 26, 2013

  Actual Average Record
Temperature  
Mean Temperature 46 °F -  
Max Temperature 64 °F 71 °F 88 °F (1963)
Min Temperature 28 °F 43 °F 26 °F (1962)
Degree Days  
Heating Degree Days 20    
Moisture  
Dew Point 32 °F    
Average Humidity 67    
Maximum Humidity 93    
Minimum Humidity 30    
Precipitation  
Precipitation 0.01 in - - ()
Sea Level Pressure  
Sea Level Pressure 30.26 in    
Wind  
Wind Speed 2 mph (SSW)    
Max Wind Speed 8 mph    
Max Gust Speed -    
Visibility 9 miles    
Events      
Averages and records for this station are not official NWS values.
T = Trace of Precipitation, MM = Missing Value Source: NWS Daily Summary

Daily Weather History Graph

Daily Weather History Graph

Search for Another Location

Airport or City:

Trip Planner

Search our weather history database for the weather conditions in past years. The results will help you decide how hot, cold, wet, or windy it might be!

Date:

Astronomy

Oct. 26, 2013 Rise Set
Actual Time 7:03 AM CDT 5:59 PM CDT
Civil Twilight 6:37 AM CDT 6:25 PM CDT
Nautical Twilight 6:07 AM CDT 6:55 PM CDT
Astronomical Twilight 5:38 AM CDT 7:24 PM CDT
Moon No Moon Rise 1:16 PM CDT (10/26)
Length of Visible Light 11h 48m
Length of Day
10h 56m
Waning Gibbous, 53% of the Moon is Illuminated
Oct 26
Waning Gibbous
Oct 26
Last Quarter
Nov 3
New
Nov 9
First Quarter
Nov 17
Full

Hourly Weather History & Observations

Time (CDT) Temp. Dew Point Humidity Pressure Visibility Wind Dir Wind Speed Gust Speed Precip Events Conditions
12:53 AM 28.9 °F 27.0 °F 92% 30.35 in 10.0 mi Calm Calm - N/A   Clear
1:53 AM 28.9 °F 26.1 °F 89% 30.34 in 9.0 mi Calm Calm - N/A   Clear
2:53 AM 28.0 °F 26.1 °F 92% 30.32 in 8.0 mi Calm Calm - N/A   Clear
3:51 AM 28.4 °F 26.6 °F 93% 30.30 in 9.0 mi Calm Calm - N/A   Partly Cloudy
3:53 AM 28.0 °F 26.1 °F 92% 30.30 in 9.0 mi Calm Calm - N/A   Partly Cloudy
4:06 AM 30.2 °F 26.6 °F 86% 30.30 in 9.0 mi Calm Calm - N/A   Mostly Cloudy
4:45 AM 28.4 °F 26.6 °F 93% 30.30 in 8.0 mi Calm Calm - N/A   Scattered Clouds
4:53 AM 28.0 °F 26.1 °F 92% 30.31 in 8.0 mi Calm Calm - N/A   Partly Cloudy
5:53 AM 28.0 °F 25.0 °F 88% 30.32 in 9.0 mi Calm Calm - N/A   Clear
6:53 AM 28.0 °F 26.1 °F 92% 30.34 in 8.0 mi Calm Calm - N/A   Clear
7:53 AM 30.9 °F 28.9 °F 92% 30.34 in 7.0 mi Calm Calm - N/A   Clear
8:53 AM 39.9 °F 36.0 °F 86% 30.34 in 9.0 mi Calm Calm - 0.01 in   Clear
9:53 AM 48.0 °F 35.1 °F 61% 30.32 in 10.0 mi South 4.6 mph - N/A   Clear
10:53 AM 53.1 °F 32.0 °F 45% 30.31 in 10.0 mi SW 5.8 mph - N/A   Clear
11:53 AM 57.0 °F 30.0 °F 36% 30.29 in 10.0 mi SSW 8.1 mph - N/A   Clear
12:53 PM 60.1 °F 30.0 °F 32% 30.26 in 10.0 mi SSW 5.8 mph - N/A   Clear
1:53 PM 61.0 °F 28.9 °F 30% 30.22 in 10.0 mi WSW 3.5 mph - N/A   Mostly Cloudy
2:53 PM 62.1 °F 30.0 °F 30% 30.21 in 10.0 mi West 6.9 mph - N/A   Mostly Cloudy
3:53 PM 63.0 °F 33.1 °F 33% 30.18 in 10.0 mi SW 8.1 mph - N/A   Clear
4:53 PM 62.1 °F 34.0 °F 35% 30.17 in 10.0 mi SSW 5.8 mph - N/A   Clear
5:53 PM 59.0 °F 36.0 °F 42% 30.16 in 10.0 mi SSW 6.9 mph - N/A   Clear
6:53 PM 57.9 °F 37.9 °F 47% 30.17 in 10.0 mi SSW 4.6 mph - N/A   Clear
7:53 PM 57.0 °F 37.9 °F 49% 30.16 in 10.0 mi SSW 8.1 mph - N/A   Clear
8:53 PM 54.0 °F 37.9 °F 55% 30.17 in 10.0 mi SSW 4.6 mph - N/A   Clear
9:53 PM 50.0 °F 41.0 °F 71% 30.18 in 10.0 mi SSE 3.5 mph - N/A   Overcast
10:53 PM 52.0 °F 42.1 °F 69% 30.17 in 10.0 mi Calm Calm - N/A   Overcast
11:53 PM 51.1 °F 43.0 °F 74% 30.15 in 10.0 mi Calm Calm - N/A   Mostly Cloudy